Flag for New Zealand Weather past 2 weeks in Auckland, New Zealand

Now
73 °F

Mild.


Feels Like: 77 °F
Forecast: 65 / 75 °F
Wind: 6 mph from South

Location: Auckland Airport

Current Time: Jan 27, 2015 at 12:20:10 PM

Latest Report: Jan 27, 2015 at 11:30 AM


Visibility: N/A

Pressure: 29.83 "Hg

Humidity: 57%

Dew point: 57 °F

Location of AucklandLocation

Historic Weather in Auckland — Graph

°F

Auckland temperature yesterday

Maximum temperature yesterday: 79 °F (at 4:30 PM)
Minimum temperature yesterday: 63 °F (at 3:00 AM)
Average temperature yesterday: 70 °F

Past Weeks' High & Low Weather Summary

 TemperatureHumidityPressure
High81 °F (Jan 25, 3:30 PM)100% (Jan 17, 8:00 PM)30.18 "Hg (Jan 17, 8:00 PM)
Low57 °F (Jan 22, 6:00 AM)41% (Jan 21, 4:30 PM)29.71 "Hg (Jan 17, 6:30 PM)
Average70 °F72%29.95 "Hg
* Reported Jan 12 11:00 AM — Jan 27 11:30 AM, Auckland, Weather by CustomWeather, © 2014

Note: Actual official high and low records may vary slightly from our data, if they occured in-between our weather recording intervals... More about our weather records

Advertising

Auckland weather history for previous 24 hours

 ConditionsComfort  
Time TempWeatherWind HumidityBarometerVisibility
11:30 AM
Jan 27
73 °FMild.6 mph57%29.83 "HgN/A
11:00 AM73 °FPassing clouds.8 mph57%29.86 "HgN/A
10:30 AM73 °FPassing clouds.7 mph61%29.86 "HgN/A
10:00 AM73 °FBroken clouds.7 mph65%29.86 "HgN/A
9:30 AM70 °FScattered clouds.6 mph73%29.86 "HgN/A
9:00 AM68 °FPartly sunny.7 mph83%29.86 "HgN/A
8:30 AM68 °FPassing clouds.2 mph83%29.86 "HgN/A
8:00 AM66 °FMild.3 mph88%29.86 "HgN/A
7:30 AM66 °FMild.5 mph88%29.83 "HgN/A
7:00 AM64 °FMild.3 mph88%29.83 "HgN/A
6:30 AM64 °FMild.7 mph94%29.83 "HgN/A
6:00 AM64 °FPassing clouds.3 mph94%29.86 "HgN/A
5:30 AM64 °FPassing clouds.3 mph94%29.83 "HgN/A
5:00 AM64 °FPassing clouds.3 mph94%29.86 "HgN/A
4:30 AM64 °FPassing clouds.1 mph94%29.86 "HgN/A
4:00 AM66 °FPassing clouds.1 mph88%29.86 "HgN/A
3:30 AM66 °FPassing clouds.5 mph88%29.86 "HgN/A
3:00 AM66 °FPassing clouds.6 mph88%29.89 "HgN/A
2:30 AM66 °FMild.7 mph88%29.89 "HgN/A
2:00 AM66 °FMild.6 mph88%29.89 "HgN/A
1:30 AM66 °FMild.5 mph88%29.92 "HgN/A
1:00 AM66 °FPassing clouds.5 mph88%29.92 "HgN/A
12:30 AM68 °FOvercast.3 mph83%29.92 "HgN/A
12:00 AM68 °FPassing clouds.3 mph83%29.95 "HgN/A
11:30 PM
Jan 26
68 °FPassing clouds.5 mph83%29.95 "HgN/A
11:00 PM68 °FPassing clouds.6 mph83%29.95 "HgN/A
10:30 PM66 °FPassing clouds.3 mph83%29.95 "HgN/A
10:00 PM68 °FPartly cloudy.7 mph83%29.95 "HgN/A
9:30 PM70 °FPassing clouds.7 mph73%29.95 "HgN/A
9:00 PM70 °FMostly cloudy.5 mph73%29.92 "HgN/A
8:30 PM72 °FMostly cloudy.2 mph69%29.92 "HgN/A
8:00 PM73 °FMostly cloudy.3 mph61%29.92 "HgN/A
7:30 PM73 °FPartly sunny.3 mph57%29.92 "HgN/A
7:00 PM73 °FOvercast.5 mph53%29.92 "HgN/A
6:30 PM77 °FPartly sunny.8 mph44%29.92 "HgN/A
6:00 PM75 °FOvercast.3 mph47%29.92 "HgN/A
5:30 PM77 °FPartly sunny.9 mph44%29.92 "HgN/A
5:00 PM77 °FPassing clouds.7 mph44%29.95 "HgN/A
4:30 PM79 °FWarm.7 mph42%29.95 "HgN/A
4:00 PM77 °FPassing clouds.9 mph44%29.95 "HgN/A
3:30 PM77 °FScattered clouds.10 mph47%29.98 "HgN/A
3:00 PM75 °FPartly sunny.9 mph50%29.98 "HgN/A
2:30 PM77 °FPartly sunny.12 mph47%29.98 "HgN/A
2:00 PM73 °FOvercast.6 mph50%29.98 "HgN/A
1:30 PM73 °FMostly cloudy.3 mph50%30.01 "HgN/A
1:00 PM73 °FPartly sunny.3 mph50%30.01 "HgN/A
12:30 PM73 °FPartly sunny.3 mph50%30.01 "HgN/A
12:00 PM73 °FPartly sunny.3 mph53%30.04 "HgN/A
Weather by CustomWeather, © 2014

See weather overviewHow to use our weather pages